National Weather Service Raw Text Product

Displaying AFOS PIL: RWRIA Received: 2017-11-15 05:00 UTC


413 
ASUS43 KDMX 150506
RWRIA 

WEATHER ROUNDUP FOR IOWA
NATIONAL WEATHER SERVICE DES MOINES IA
1100 PM CST TUE NOV 14 2017

NOTE: "FAIR" INDICATES FEW OR NO CLOUDS BELOW 12,000 FEET WITH NO
SIGNIFICANT WEATHER AND/OR OBSTRUCTIONS TO VISIBILITY.

* - THESE STATIONS ARE NOT NWS STATIONS...THUS NOT UNDER NWS
QUALITY CONTROL.  THEY ALSO DO NOT REPORT WEATHER SUCH 
AS PRECIPITATION OR FOG.  

IAZ001>003-012>014-020>022-031>034-043>046-150600-
   NORTHWEST IOWA
  
CITY           SKY/WX    TMP DP  RH WIND       PRES   REMARKS
CARROLL *      CLOUDY    54  52  94 SW9       29.85R                  
CHEROKEE *     CLOUDY    50  49  99 SW6       29.83R                  
DENISON *      CLOUDY    50  50 100 S7        29.85F FOG              
LE MARS *      MOCLDY    50  43  76 W9        29.85R                  
ORANGE CITY *  CLOUDY    48  46  93 W14       29.84R                  
SHELDON *      CLOUDY    46  43  87 W12       29.81R                  
SIOUX CITY     CLOUDY    50  48  93 W9        29.84S                  
SPENCER        CLOUDY    49  47  93 W8        29.80F                  
STORM LAKE *   PTCLDY    48  48 100 SW14      29.81F                  
$$
 
IAZ055>058-069>071-079>083-090>094-150600-
   SOUTHWEST IOWA
  
CITY           SKY/WX    TMP DP  RH WIND       PRES   REMARKS
ATLANTIC *     CLOUDY    54  54 100 SW6       29.86R FOG              
AUDUBON *      DRIZZLE   54  52  94 CALM      29.86S                  
CLARINDA *       N/A     54  54 100 SW6         N/A  FOG              
COUNCIL BLFS * CLOUDY    54  54 100 SW6       29.86R FOG              
CRESTON *      CLOUDY    52  52 100 S13       29.87F FOG              
HARLAN  *      CLOUDY    54  54 100 SW6       29.90R                  
LAMONI         LGT RAIN  50  50 100 S10       29.88F FOG              
RED OAK *      CLOUDY    54  54 100 S8        29.86F FOG              
SHENANDOAH *   CLOUDY    54  54 100 S6        29.87F FOG              
$$
 
IAZ047>049-059>061-072>074-084-150600-
   CENTRAL IOWA
  
CITY           SKY/WX    TMP DP  RH WIND       PRES   REMARKS
AMES           CLOUDY    51  51 100 S9        29.85F FOG              
ANKENY *       CLOUDY    50  50 100 S8        29.87F FOG              
BOONE *        CLOUDY    52  50  93 S9        29.84F FOG              
CHARITON *     CLOUDY    50  48  93 S10       29.88F FOG              
DES MOINES     DRIZZLE   51  50  96 S9        29.86F FOG              
GRINNELL*      CLOUDY    48  47  98 S8        29.90S FOG              
KNOXVILLE *    CLOUDY    50  50 100 S12       29.87F FOG              
MARSHALLTOWN   CLOUDY    48  48 100 S10       29.87S FOG              
NEWTON *       CLOUDY    48  48 100 S8        29.89R FOG              
PELLA *        CLOUDY    49  48  97 S8        29.90F FOG              
PERRY *        CLOUDY    52  52  99 SW5       29.86S FOG              
$$
 
IAZ004>006-015-016-023>025-035-036-150600-
   NORTH CENTRAL IOWA
  
CITY           SKY/WX    TMP DP  RH WIND       PRES   REMARKS
ALGONA *       PTCLDY    50  50 100 SW7       29.83R FOG              
CLARION *      CLOUDY    50  50 100 S13       29.82F FOG              
ESTHERVILLE    CLOUDY    47  47 100 SW7       29.80S                  
FORT DODGE *   CLOUDY    52  51  97 SW8       29.83F                  
MASON CITY     CLOUDY    48  47  96 S10       29.84F FOG              
FOREST CITY *  CLOUDY    50  50 100 S8        29.81F FOG              
WEBSTER CITY * CLOUDY    52  52 100 S12       29.81F FOG              
IOWA FALLS *   CLOUDY    49  48  97 S12       29.86S FOG              
$$

IAZ007>011-017>019-026>030-037>042-050>054-066-150600-
   NORTHEAST IOWA
  
CITY           SKY/WX    TMP DP  RH WIND       PRES   REMARKS
CEDAR RAPIDS   CLOUDY    47  41  80 S7        29.91S                  
CHARLES CITY * CLOUDY    46  46 100 S9        29.85F FOG              
CLINTON *      CLOUDY    48  39  71 S8        29.96S                  
DECORAH *      CLOUDY    43  43 100 S8        29.86F FOG              
DUBUQUE        CLOUDY    45  39  79 S12       29.93F                  
MONTICELLO *   CLOUDY    45  41  87 S8G14     29.94S FOG              
OELWEIN *      CLOUDY    45  45 100 S14       29.89S FOG              
WATERLOO       CLOUDY    46  45  96 S12       29.87F FOG              
$$
 
IAZ064-065-067-068-078-150600-
   EAST CENTRAL IOWA
  
CITY           SKY/WX    TMP DP  RH WIND       PRES   REMARKS
DAVENPORT      CLOUDY    49  37  63 S13G22    29.96F                  
IOWA CITY      CLOUDY    50  41  71 S6        29.94S                  
MT. PLEASANT * CLOUDY    49  40  70 S12       29.94S                  
MUSCATINE *    CLOUDY    48  39  71 SE6       29.94F                  
QUAD CITIES    CLOUDY    50  37  61 S10       29.94F                  
$$
 
IAZ062-063-075>077-085>089-095>099-150600-
   SOUTHEAST IOWA
  
CITY           SKY/WX    TMP DP  RH WIND       PRES   REMARKS
BURLINGTON     CLOUDY    49  39  68 S12       29.95F                  
FAIRFIELD *    CLOUDY    48  48 100 S9        29.92S FOG              
FORT MADISON * CLOUDY    50  39  66 S9        29.95F                  
KEOKUK *       CLOUDY    52  39  62 MISG      29.93F                  
OSKALOOSA *    CLOUDY    48  47  99 S10       29.90F FOG              
OTTUMWA        CLOUDY    49  48  97 S10       29.90F FOG              
WASHINGTON *   CLOUDY    50  46  87 S16       29.93S                  
$$

ABBREVIATIONS USED IN REMARKS
   TC - TEMPERATURES IN CELSIUS
  WCI - WIND CHILL INDEX
   HX - HEAT INDEX
  VSB - VISIBILITY  
$$

  

562 
ASUS43 KDMX 150501
RWRIA 

WEATHER ROUNDUP FOR IOWA
NATIONAL WEATHER SERVICE DES MOINES IA
1100 PM CST TUE NOV 14 2017

NOTE: "FAIR" INDICATES FEW OR NO CLOUDS BELOW 12,000 FEET WITH NO
SIGNIFICANT WEATHER AND/OR OBSTRUCTIONS TO VISIBILITY.

* - THESE STATIONS ARE NOT NWS STATIONS...THUS NOT UNDER NWS
QUALITY CONTROL.  THEY ALSO DO NOT REPORT WEATHER SUCH 
AS PRECIPITATION OR FOG.  

IAZ001>003-012>014-020>022-031>034-043>046-150600-
   NORTHWEST IOWA
  
CITY           SKY/WX    TMP DP  RH WIND       PRES   REMARKS
CARROLL *      CLOUDY    54  52  94 SW9       29.85R                  
CHEROKEE *     CLOUDY    50  49  99 SW6       29.83R                  
DENISON *      CLOUDY    50  50 100 S7        29.85F FOG              
LE MARS *      MOCLDY    50  43  76 W9        29.85R                  
ORANGE CITY *  CLOUDY    48  46  93 W14       29.84R                  
SHELDON *      CLOUDY    46  43  87 W12       29.81R                  
SIOUX CITY     CLOUDY    50  48  93 W9        29.84S                  
SPENCER        CLOUDY    49  47  93 W8        29.80F                  
STORM LAKE *   PTCLDY    48  48 100 SW14      29.81F                  
$$
 
IAZ055>058-069>071-079>083-090>094-150600-
   SOUTHWEST IOWA
  
CITY           SKY/WX    TMP DP  RH WIND       PRES   REMARKS
ATLANTIC *     CLOUDY    54  54 100 SW6       29.86R FOG              
AUDUBON *      DRIZZLE   54  52  94 CALM      29.86S                  
CLARINDA *       N/A     54  54 100 SW6         N/A  FOG              
COUNCIL BLFS * CLOUDY    54  54 100 SW6       29.86R FOG              
CRESTON *      CLOUDY    52  52 100 S13       29.87F FOG              
HARLAN  *      CLOUDY    54  54 100 SW6       29.90R                  
LAMONI         LGT RAIN  50  50 100 S10       29.88F FOG              
RED OAK *      CLOUDY    54  54 100 S8        29.86F FOG              
SHENANDOAH *   CLOUDY    54  54 100 S6        29.87F FOG              
$$
 
IAZ047>049-059>061-072>074-084-150600-
   CENTRAL IOWA
  
CITY           SKY/WX    TMP DP  RH WIND       PRES   REMARKS
AMES           CLOUDY    51  51 100 S9        29.85F FOG              
ANKENY *       CLOUDY    50  50 100 S8        29.87F FOG              
BOONE *        CLOUDY    52  50  93 S9        29.84F FOG              
CHARITON *     CLOUDY    50  48  93 S10       29.88F FOG              
DES MOINES     DRIZZLE   51  50  96 S9        29.86F FOG              
GRINNELL*      CLOUDY    48  47  98 S8        29.90S FOG              
KNOXVILLE *    CLOUDY    50  50 100 S12       29.87F FOG              
MARSHALLTOWN   CLOUDY    48  48 100 S10       29.87S FOG              
NEWTON *       CLOUDY    48  48 100 S8        29.89R FOG              
PELLA *        CLOUDY    49  48  97 S8        29.90F FOG              
PERRY *        CLOUDY    52  52  99 SW5       29.86S FOG              
$$
 
IAZ004>006-015-016-023>025-035-036-150600-
   NORTH CENTRAL IOWA
  
CITY           SKY/WX    TMP DP  RH WIND       PRES   REMARKS
ALGONA *       PTCLDY    50  50 100 SW7       29.83R FOG              
CLARION *      CLOUDY    50  50 100 S13       29.82F FOG              
ESTHERVILLE    CLOUDY    47  47 100 SW7       29.80S                  
FORT DODGE *   CLOUDY    52  51  97 SW8       29.83F                  
MASON CITY     CLOUDY    48  47  96 S10       29.84F FOG              
FOREST CITY *  CLOUDY    50  50 100 S8        29.81F FOG              
WEBSTER CITY * CLOUDY    52  52 100 S12       29.81F FOG              
IOWA FALLS *   CLOUDY    49  48  97 S12       29.86S FOG              
$$

IAZ007>011-017>019-026>030-037>042-050>054-066-150600-
   NORTHEAST IOWA
  
CITY           SKY/WX    TMP DP  RH WIND       PRES   REMARKS
CEDAR RAPIDS   CLOUDY    47  41  80 S7        29.91S                  
CHARLES CITY * CLOUDY    46  46 100 S9        29.85F FOG              
CLINTON *      CLOUDY    48  39  71 S8        29.96S                  
DECORAH *      CLOUDY    43  43 100 S8        29.86F FOG              
DUBUQUE        CLOUDY    45  39  79 S12       29.93F                  
MONTICELLO *   CLOUDY    45  41  87 S8G14     29.94S FOG              
OELWEIN *      CLOUDY    45  45 100 S14       29.89S FOG              
WATERLOO       CLOUDY    46  45  96 S12       29.87F FOG              
$$
 
IAZ064-065-067-068-078-150600-
   EAST CENTRAL IOWA
  
CITY           SKY/WX    TMP DP  RH WIND       PRES   REMARKS
DAVENPORT      CLOUDY    49  37  63 S13G22    29.96F                  
IOWA CITY      CLOUDY    50  41  71 S6        29.94S                  
MT. PLEASANT * CLOUDY    49  40  70 S12       29.94S                  
MUSCATINE *    CLOUDY    48  39  71 SE6       29.94F                  
QUAD CITIES    CLOUDY    50  37  61 S10       29.94F                  
$$
 
IAZ062-063-075>077-085>089-095>099-150600-
   SOUTHEAST IOWA
  
CITY           SKY/WX    TMP DP  RH WIND       PRES   REMARKS
BURLINGTON     CLOUDY    49  39  68 S12       29.95F                  
FAIRFIELD *    CLOUDY    48  48 100 S9        29.92S FOG              
FORT MADISON * CLOUDY    50  39  66 S9        29.95F                  
KEOKUK *       CLOUDY    52  39  62 MISG      29.93F                  
OSKALOOSA *    CLOUDY    48  47  99 S10       29.90F FOG              
OTTUMWA        CLOUDY    49  48  97 S12       29.91S FOG              
WASHINGTON *   CLOUDY    50  46  87 S16       29.93S                  
$$

ABBREVIATIONS USED IN REMARKS
   TC - TEMPERATURES IN CELSIUS
  WCI - WIND CHILL INDEX
   HX - HEAT INDEX
  VSB - VISIBILITY  
$$